Weather in Novoselovka

Ukraine / Odesa District     46°59′32″N   29°54′42″E
temp.,
°C
wind,
m/s
gust,
m/s
humid.,
%
clouds,
%
prec.,
mm/h
press.,
hPa
HPBL,
m
31 july, sat
sat3100:00+23ne12570 0.0 101111
03:00+22ne11570 0.0 101111
06:00+21ene116058 0.0 101111
09:00+25se224999 0.0 1012237
12:00+30sse11370 0.0 10111593
15:00+32ssw233399 0.0 10102830
18:00+32sse123054 0.0 10102295
21:00+23s127120 0.0 101152
1 august, sun
sun100:00+22ssw23710 0.0 101232
03:00+22sw2274100 0.0 101123
06:00+22sse33715 0.0 101137
09:00+27s57510 0.0 1012513
12:00+32ssw66360 0.0 10111509
15:00+34ssw56320 0.0 10102150
18:00+34s563355 0.0 10092386
21:00+26s6125214 0.1 1010308
2 august, mon
mon200:00+23s512618 0.0 1011267
03:00+22s411660 0.0 1010222
06:00+22ssw4116842 0.0 1010251
09:00+28s475192 0.0 1010479
12:00+34s810331 0.0 10091257
15:00+31s7114099 0.0 1008451
18:00+31sse9124257 0.3 1005720
21:00+24sse36730 10.5 1009101
3 august, tue
tue300:00+23sw117523 0.0 101021
03:00+21nne5108680 0.0 1011283
06:00+20nne38911 0.1 1012256
09:00+23n567252 0.1 1013584
12:00+26n55520 0.0 10141154
15:00+28n44430 0.0 10141757
18:00+28nnw444034 0.0 10142001
21:00+23nne37560 0.0 1016139
4 august, wed
wed400:00+21nne33590 0.0 101641
03:00+20nne22630 0.0 101713
06:00+18ene22655 0.0 101715
09:00+24e33500 0.0 1018472
12:00+28s22370 0.0 10171617
15:00+30ssw123295 0.0 10162298
18:00+30w13325 0.0 10152257
21:00+24ssw4848100 0.0 1016210